#timestamp,LO_Frequency,Hit,StdDev 
1552633245.9,286047003.4,E
1552633255.8,286047002.9,N
1552633275.7,286047005.5,P
1552633295.5,286047006.0,P
1552633315.3,286047003.3,N
1552633335.2,286047005.0,Y
1552633355.0,286047001.7,P
1552633355.9,286047001.7,N
1552633375.7,286047002.2,N
1552633395.6,286047001.9,N
1552633415.4,286047002.2,N
1552633435.3,286047001.3,N
1552633455.1,286047001.5,N
1552633456.0,286047001.5,N
1552633475.8,286047002.6,N
1552633495.7,286046999.1,N
1552633515.5,286046999.1,N
1552633535.3,286046997.9,N
1552633555.2,286046995.1,Y
1552633575.0,286046994.8,P
1552633575.9,286046994.8,N
1552633595.8,286046991.9,N
1552633615.6,286046993.7,N
1552633635.4,286046990.1,Y
1552633655.3,286046995.7,P
1552633675.1,286046993.4,P
1552633695.8,286046992.5,P
1552633715.7,286046991.0,Y
1552633735.5,286046996.8,P
1552633755.4,286046995.3,P
1552633775.2,286046995.3,P
1552633795.0,286046997.3,N
1552633795.9,286046997.3,N
1552633815.8,286046999.2,N
1552633835.6,286046998.5,N
1552633855.4,286047000.8,N
1552633875.3,286046998.9,N
1552633895.1,286046997.7,N
1552633915.9,286046999.6,N
1552633935.7,286046995.1,N
1552633955.5,286046995.6,N
1552633975.4,286046995.9,N
1552633995.2,286046997.8,N
1552634015.0,286046998.8,N
1552634015.9,286046998.8,N
1552634035.8,286046998.3,N
1552634055.6,286046999.2,N
1552634075.5,286047000.2,N
1552634095.3,286047002.1,N
1552634115.1,286047001.9,N
1552634135.9,286047000.1,N
1552634155.7,286047002.8,N
1552634175.5,286047002.0,N
1552634195.4,286047002.3,N
1552634215.2,286046999.8,N
1552634235.1,286047002.4,N
1552634236.0,286047002.4,N
1552634255.8,286047005.8,N
1552634275.6,286047004.1,N
1552634295.5,286047001.5,N
1552634315.3,286047003.4,N
1552634335.1,286047005.5,N
1552634355.9,286047005.5,N
1552634375.7,286047005.7,N
1552634395.6,286047006.7,N
1552634415.4,286047007.3,N
1552634435.2,286047007.5,N
1552634455.1,286047005.6,N
1552634456.0,286047005.6,N
1552634475.8,286047003.6,N
1552634495.6,286047003.6,N
1552634515.5,286047004.1,N
1552634535.3,286047003.2,N
1552634555.1,286047005.4,N
1552634575.9,286047003.1,N
1552634595.7,286047004.4,N
1552634615.6,286047002.4,N
1552634635.4,286047000.6,N
1552634655.2,286047001.0,N
1552634675.1,286047000.8,N
1552634676.0,286047000.8,N
1552634695.8,286047000.6,N
1552634715.6,286047000.5,N
1552634735.5,286047001.9,N
1552634755.3,286047000.0,N
1552634775.2,286047002.4,N
1552634795.9,286047002.6,N
1552634815.7,286047002.3,N
1552634835.6,286047000.5,N
1552634855.4,286046999.6,N
1552634875.2,286046996.1,N
1552634895.1,286046996.2,N
1552634896.0,286046996.2,N
1552634915.8,286046993.6,N
1552634935.7,286046994.6,N
1552634955.5,286046993.0,N
1552634975.3,286046991.1,N
1552634995.2,286046987.0,Y
1552635015.0,286046985.7,P
1552635015.9,286046985.7,N
1552635035.8,286046985.9,N
1552635055.6,286046985.9,N
1552635075.4,286046986.0,N
1552635095.3,286046985.6,N
1552635115.1,286046987.4,N
1552635116.0,286046987.4,N
1552635135.8,286046988.6,N
1552635155.7,286046990.1,N
1552635175.5,286046992.5,N
1552635195.3,286046994.4,N
1552635215.2,286046993.7,N
1552635235.0,286046993.7,N
1552635235.9,286046993.7,N
1552635255.8,286046992.0,N
1552635275.6,286046994.1,N
1552635295.4,286046992.2,N
1552635315.3,286046994.7,N
1552635335.1,286046992.8,N
1552635355.8,286046990.6,N
1552635375.7,286046990.6,N
1552635395.5,286046991.2,N
1552635415.4,286046991.6,N
1552635435.2,286046987.8,Y
1552635455.0,286046994.9,P
1552635455.9,286046994.9,N
1552635475.8,286046999.6,N
1552635495.6,286046997.5,N
1552635515.4,286046997.8,N
1552635535.3,286046998.9,N
1552635555.1,286046996.5,N
1552635575.9,286046998.5,N
1552635595.7,286047000.6,N
1552635615.5,286047000.4,N
1552635635.4,286047002.4,N
1552635655.2,286047001.8,N
1552635675.0,286047003.1,N
1552635675.9,286047003.1,N
1552635695.8,286047006.0,N
1552635715.6,286047003.2,N
1552635735.5,286047002.9,N
1552635755.3,286047003.7,N
1552635775.1,286047001.5,N
1552635795.9,286047002.2,N
1552635815.7,286047001.2,N
1552635835.5,286046999.6,N
1552635855.4,286046998.5,N
1552635875.2,286046997.3,N
1552635895.1,286046996.0,N
1552635896.0,286046996.0,N
1552635915.8,286046993.5,N
1552635935.6,286046992.9,N
1552635955.5,286046991.9,N
1552635975.3,286046990.4,N
1552635995.1,286046992.7,N
1552636015.9,286046992.2,N
1552636035.7,286046992.2,N
1552636055.6,286046992.0,N
1552636075.4,286046994.0,N
1552636095.2,286046996.0,N
1552636115.1,286046997.5,N
1552636116.0,286046997.5,N
1552636135.8,286046995.6,N
1552636155.6,286046999.4,N
1552636175.5,286046999.2,N
1552636195.3,286046996.5,N
1552636215.2,286047000.9,N
1552636235.9,286047001.0,N
1552636255.7,286047000.8,N
1552636275.6,286047000.4,N
1552636295.4,286047001.0,N
1552636315.2,286047000.6,N
1552636335.1,286047001.9,N
1552636336.0,286047001.9,N
1552636355.8,286046999.7,N
1552636375.7,286047002.2,N
1552636395.5,286047005.5,N
1552636415.3,286047006.0,N
1552636435.2,286047002.9,N
1552636455.0,286047006.0,N
1552636455.9,286047006.0,N
1552636475.7,286047003.2,N
1552636495.6,286047003.0,N
1552636515.4,286047003.3,N
1552636535.3,286047006.0,N
1552636555.1,286047003.2,N
1552636556.0,286047003.2,N
1552636575.8,286047004.9,N
1552636595.7,286047006.7,N
1552636615.5,286047007.4,N
1552636635.3,286047007.2,N
1552636655.2,286047007.4,N
1552636675.0,286047007.1,N
1552636675.9,286047007.1,N
1552636695.8,286047006.2,N
1552636715.6,286047009.5,Y
1552636735.4,286047010.7,P
1552636755.3,286047007.9,N
1552636775.1,286047007.8,N
1552636795.8,286047010.3,Y
